| time (UTC) | temp C | wind direction | speed KPH | gust KPH | rain 1hr cm | rain 24hr cm | rain mn cm | humidity % | barometer mb |
| 20260505094004 | 11 | 212 | 0.0 | 0.0 | 0.00 | 0.00 | 0.00 | 69 | 1023.6 |
| 20260505093505 | 11 | 212 | 0.0 | 0.0 | 0.00 | 0.00 | 0.00 | 70 | 1023.6 |
| 20260505093012 | 11 | 212 | 0.0 | 0.0 | 0.00 | 0.00 | 0.00 | 70 | 1023.6 |
| 20260505092505 | 11 | 212 | 0.0 | 0.0 | 0.00 | 0.00 | 0.00 | 70 | 1023.5 |
| 20260505092006 | 11 | 212 | 0.0 | 0.0 | 0.00 | 0.00 | 0.00 | 69 | 1023.6 |
| 20260505091514 | 11 | 212 | 0.0 | 1.6 | 0.00 | 0.00 | 0.00 | 69 | 1023.6 |
| 20260505091006 | 11 | 212 | 0.0 | 1.6 | 0.00 | 0.00 | 0.00 | 69 | 1023.6 |
| 20260505090504 | 11 | 212 | 0.0 | 1.6 | 0.00 | 0.00 | 0.00 | 68 | 1023.6 |
| 20260505090016 | 11 | 212 | 0.0 | 0.0 | 0.00 | 0.00 | 0.00 | 68 | 1023.5 |
| 20260505085004 | 12 | 212 | 0.0 | 0.0 | 0.00 | 0.00 | 0.00 | 68 | 1023.2 |
| 20260505084505 | 12 | 212 | 0.0 | 0.0 | 0.00 | 0.00 | 0.00 | 69 | 1023.2 |
| 20260505084004 | 12 | 212 | 0.0 | 0.0 | 0.00 | 0.00 | 0.00 | 69 | 1023.2 |
| 20260505083504 | 12 | 212 | 0.0 | 1.6 | 0.00 | 0.00 | 0.00 | 69 | 1023.2 |
| 20260505083008 | 12 | 212 | 0.0 | 1.6 | 0.00 | 0.00 | 0.00 | 70 | 1023.2 |
| 20260505082504 | 12 | 212 | 0.0 | 0.0 | 0.00 | 0.00 | 0.00 | 71 | 1023.2 |
| 20260505082006 | 12 | 212 | 0.0 | 0.0 | 0.00 | 0.03 | 0.00 | 71 | 1023.1 |
| 20260505081507 | 12 | 212 | 0.0 | 0.0 | 0.00 | 0.03 | 0.00 | 70 | 1023.1 |
| 20260505081006 | 12 | 212 | 0.0 | 4.8 | 0.00 | 0.03 | 0.00 | 70 | 1023.1 |
| 20260505080510 | 12 | 212 | 0.0 | 4.8 | 0.00 | 0.05 | 0.00 | 70 | 1023.0 |
| 20260505075510 | 12 | 148 | 0.0 | 0.0 | 0.00 | 0.08 | 0.00 | 71 | 1022.8 |
| 20260505075007 | 12 | 148 | 0.0 | 0.0 | 0.00 | 0.08 | 0.00 | 71 | 1022.7 |
| 20260505074522 | 12 | 148 | 0.0 | 4.8 | 0.00 | 0.08 | 0.00 | 71 | 1022.6 |
| 20260505074009 | 12 | 148 | 0.0 | 6.4 | 0.00 | 0.08 | 0.00 | 71 | 1022.6 |
| 20260505073505 | 12 | 148 | 3.2 | 6.4 | 0.00 | 0.08 | 0.00 | 71 | 1022.6 |
| 20260505073008 | 12 | 137 | 0.0 | 6.4 | 0.00 | 0.08 | 0.00 | 71 | 1022.6 |
| 20260505072505 | 12 | 130 | 3.2 | 8.0 | 0.00 | 0.08 | 0.00 | 71 | 1022.5 |
| 20260505072005 | 12 | 133 | 4.8 | 8.0 | 0.00 | 0.08 | 0.00 | 70 | 1022.5 |
| 20260505071509 | 12 | 145 | 3.2 | 6.4 | 0.00 | 0.08 | 0.00 | 70 | 1022.3 |
| 20260505071005 | 12 | 154 | 1.6 | 6.4 | 0.00 | 0.08 | 0.00 | 70 | 1022.3 |
| 20260505070508 | 12 | 172 | 1.6 | 4.8 | 0.00 | 0.08 | 0.00 | 70 | 1022.3 |
| 20260505070019 | 12 | 189 | 0.0 | 4.8 | 0.00 | 0.08 | 0.00 | 70 | 1022.3 |
| 20260505065507 | 12 | 189 | 3.2 | 4.8 | 0.00 | 0.08 | 0.00 | 69 | 1022.2 |
| 20260505065007 | 12 | 189 | 3.2 | 4.8 | 0.00 | 0.08 | 0.00 | 69 | 1022.2 |
| 20260505064514 | 12 | 189 | 0.0 | 8.0 | 0.00 | 0.08 | 0.00 | 69 | 1022.1 |
| 20260505064005 | 12 | 175 | 3.2 | 8.0 | 0.00 | 0.08 | 0.00 | 67 | 1022.1 |
| 20260505063509 | 13 | 193 | 3.2 | 12.9 | 0.00 | 0.08 | 0.00 | 67 | 1021.9 |
| 20260505063013 | 13 | 180 | 4.8 | 12.9 | 0.00 | 0.08 | 0.00 | 66 | 1021.9 |
| 20260505062511 | 13 | 210 | 6.4 | 9.7 | 0.00 | 0.08 | 0.00 | 65 | 1021.9 |
| 20260505062009 | 13 | 190 | 4.8 | 8.0 | 0.00 | 0.08 | 0.00 | 65 | 1021.9 |
| 20260505061509 | 13 | 205 | 4.8 | 11.3 | 0.00 | 0.08 | 0.00 | 65 | 1021.9 |
| 20260505061010 | 13 | 172 | 4.8 | 12.9 | 0.00 | 0.08 | 0.00 | 65 | 1021.9 |
| 20260505060506 | 13 | 192 | 4.8 | 14.5 | 0.00 | 0.08 | 0.00 | 65 | 1021.8 |
| 20260505060010 | 13 | 202 | 8.0 | 14.5 | 0.00 | 0.08 | 0.00 | 63 | 1021.8 |
| 20260505055507 | 13 | 239 | 6.4 | 9.7 | 0.00 | 0.08 | 0.00 | 63 | 1021.7 |
| 20260505055007 | 13 | 224 | 4.8 | 11.3 | 0.00 | 0.08 | 0.00 | 62 | 1021.7 |
| 20260505054530 | 13 | 248 | 3.2 | 11.3 | 0.00 | 0.08 | 0.00 | 63 | 1021.7 |
| 20260505054008 | 13 | 238 | 6.4 | 11.3 | 0.00 | 0.08 | 0.00 | 62 | 1021.6 |
| 20260505053511 | 13 | 250 | 3.2 | 9.7 | 0.00 | 0.08 | 0.00 | 63 | 1021.5 |
| 20260505053023 | 13 | 193 | 1.6 | 12.9 | 0.00 | 0.08 | 0.00 | 66 | 1021.4 |
| 20260505052508 | 13 | 233 | 6.4 | 16.1 | 0.00 | 0.08 | 0.00 | 64 | 1021.4 |
| 20260505052010 | 13 | 274 | 8.0 | 16.1 | 0.00 | 0.08 | 0.00 | 62 | 1021.3 |
| 20260505051522 | 13 | 261 | 9.7 | 14.5 | 0.00 | 0.08 | 0.00 | 63 | 1021.3 |
| 20260505051007 | 13 | 261 | 0.0 | 0.0 | 0.00 | 0.08 | 0.00 | 63 | 1021.4 |
| 20260505050513 | 13 | 201 | 0.0 | 0.0 | 0.00 | 0.08 | 0.00 | 63 | 1021.4 |
| 20260505041522 | 12 | 271 | 1.6 | 14.5 | 0.00 | 0.08 | 0.00 | 65 | 1021.2 |
| 20260505041009 | 12 | 294 | 8.0 | 12.9 | 0.00 | 0.08 | 0.00 | 66 | 1021.2 |
| 20260505040511 | 12 | 231 | 6.4 | 12.9 | 0.00 | 0.08 | 0.00 | 65 | 1021.1 |
| 20260505040030 | 12 | 243 | 4.8 | 12.9 | 0.00 | 0.08 | 0.00 | 65 | 1021.1 |
| 20260505035507 | 12 | 256 | 4.8 | 11.3 | 0.00 | 0.08 | 0.00 | 67 | 1021.1 |
| 20260505035007 | 12 | 237 | 4.8 | 16.1 | 0.00 | 0.08 | 0.00 | 67 | 1021.1 |
| 20260505034505 | 12 | 236 | 8.0 | 16.1 | 0.00 | 0.08 | 0.00 | 67 | 1021.1 |
| 20260505034004 | 12 | 248 | 6.4 | 17.7 | 0.00 | 0.08 | 0.00 | 66 | 1021.1 |
| 20260505033506 | 12 | 255 | 4.8 | 17.7 | 0.00 | 0.08 | 0.00 | 67 | 1021.2 |
| 20260505033015 | 12 | 210 | 6.4 | 14.5 | 0.00 | 0.08 | 0.00 | 67 | 1021.1 |
| 20260505032507 | 12 | 267 | 4.8 | 12.9 | 0.00 | 0.08 | 0.00 | 68 | 1021.0 |
| 20260505031519 | 12 | 260 | 8.0 | 12.9 | 0.00 | 0.08 | 0.00 | 68 | 1021.1 |
| 20260505031007 | 12 | 241 | 6.4 | 19.3 | 0.00 | 0.08 | 0.00 | 67 | 1021.2 |
| 20260505030504 | 12 | 245 | 9.7 | 19.3 | 0.00 | 0.08 | 0.00 | 68 | 1021.2 |
| 20260505030036 | 12 | 222 | 8.0 | 14.5 | 0.00 | 0.08 | 0.00 | 68 | 1021.2 |
| 20260505025508 | 12 | 253 | 6.4 | 20.9 | 0.00 | 0.08 | 0.00 | 68 | 1021.2 |
| 20260505025006 | 11 | 263 | 11.3 | 20.9 | 0.00 | 0.08 | 0.00 | 70 | 1021.2 |
| 20260505024516 | 11 | 234 | 8.0 | 19.3 | 0.00 | 0.08 | 0.00 | 70 | 1021.2 |
| 20260505024004 | 11 | 233 | 9.7 | 19.3 | 0.00 | 0.08 | 0.00 | 70 | 1021.2 |
| 20260505023504 | 12 | 245 | 9.7 | 16.1 | 0.00 | 0.08 | 0.00 | 69 | 1021.3 |
| 20260505023016 | 12 | 254 | 11.3 | 16.1 | 0.00 | 0.08 | 0.00 | 68 | 1021.4 |
| 20260505022506 | 12 | 262 | 8.0 | 16.1 | 0.00 | 0.08 | 0.00 | 69 | 1021.4 |
| 20260505022008 | 12 | 289 | 6.4 | 17.7 | 0.00 | 0.08 | 0.00 | 68 | 1021.4 |
| 20260505021008 | 11 | 250 | 4.8 | 19.3 | 0.00 | 0.08 | 0.00 | 70 | 1021.5 |
| 20260505020507 | 12 | 260 | 11.3 | 20.9 | 0.00 | 0.08 | 0.00 | 71 | 1021.6 |
| 20260505020010 | 12 | 254 | 12.9 | 20.9 | 0.00 | 0.08 | 0.00 | 70 | 1021.5 |
| 20260505015509 | 12 | 258 | 14.5 | 20.9 | 0.00 | 0.08 | 0.00 | 69 | 1021.6 |
| 20260505014532 | 12 | 252 | 12.9 | 20.9 | 0.00 | 0.08 | 0.00 | 70 | 1021.6 |
| 20260505013507 | 12 | 245 | 11.3 | 24.1 | 0.00 | 0.08 | 0.00 | 69 | 1021.7 |
| 20260505013017 | 12 | 241 | 12.9 | 24.1 | 0.00 | 0.08 | 0.00 | 68 | 1021.6 |
| 20260505012507 | 12 | 262 | 9.7 | 22.5 | 0.00 | 0.08 | 0.00 | 68 | 1021.7 |
| 20260505012006 | 12 | 277 | 9.7 | 20.9 | 0.00 | 0.08 | 0.00 | 67 | 1021.7 |
| 20260505011515 | 12 | 247 | 12.9 | 35.4 | 0.00 | 0.08 | 0.00 | 68 | 1021.6 |
| 20260505011007 | 12 | 230 | 19.3 | 35.4 | 0.00 | 0.08 | 0.00 | 68 | 1021.5 |
| 20260505010507 | 12 | 256 | 24.1 | 33.8 | 0.00 | 0.08 | 0.00 | 67 | 1021.4 |
| 20260505010020 | 12 | 231 | 12.9 | 22.5 | 0.00 | 0.08 | 0.00 | 69 | 1021.5 |
| 20260505005512 | 12 | 218 | 14.5 | 25.7 | 0.00 | 0.08 | 0.00 | 69 | 1021.4 |
| 20260505005008 | 12 | 264 | 16.1 | 25.7 | 0.00 | 0.08 | 0.00 | 69 | 1021.4 |
| 20260505004010 | 12 | 234 | 16.1 | 25.7 | 0.00 | 0.08 | 0.00 | 70 | 1021.3 |
| 20260505003508 | 12 | 242 | 12.9 | 24.1 | 0.00 | 0.08 | 0.00 | 72 | 1021.2 |
| 20260505003015 | 12 | 233 | 11.3 | 20.9 | 0.00 | 0.08 | 0.00 | 71 | 1021.2 |
| 20260505002509 | 12 | 287 | 14.5 | 19.3 | 0.00 | 0.08 | 0.00 | 71 | 1021.1 |
| 20260505002008 | 11 | 242 | 9.7 | 22.5 | 0.00 | 0.08 | 0.00 | 72 | 1021.1 |
| 20260505001510 | 11 | 210 | 12.9 | 22.5 | 0.00 | 0.08 | 0.00 | 72 | 1020.9 |
| 20260505001007 | 11 | 241 | 16.1 | 24.1 | 0.00 | 0.08 | 0.00 | 72 | 1020.9 |
| 20260505000511 | 12 | 270 | 16.1 | 24.1 | 0.00 | 0.08 | 0.00 | 74 | 1020.9 |
| 20260505000018 | 11 | 233 | 14.5 | 20.9 | 0.00 | 0.08 | 0.00 | 75 | 1021.0 |
| 20260504235507 | 11 | 254 | 11.3 | 17.7 | 0.00 | 0.08 | 0.00 | 78 | 1020.9 |
| 20260504235008 | 11 | 254 | 8.0 | 17.7 | 0.00 | 0.08 | 0.00 | 78 | 1020.9 |
| 20260504234521 | 11 | 278 | 11.3 | 16.1 | 0.00 | 0.08 | 0.00 | 79 | 1020.9 |
| 20260504234008 | 11 | 263 | 6.4 | 16.1 | 0.00 | 0.08 | 0.00 | 79 | 1020.9 |
| 20260504233025 | 11 | 256 | 8.0 | 17.7 | 0.00 | 0.08 | 0.00 | 81 | 1020.8 |
| 20260504232014 | 11 | 253 | 11.3 | 20.9 | 0.00 | 0.08 | 0.00 | 82 | 1020.8 |
| 20260504231523 | 10 | 241 | 11.3 | 20.9 | 0.00 | 0.08 | 0.00 | 83 | 1020.9 |
| 20260504231011 | 10 | 266 | 11.3 | 19.3 | 0.00 | 0.08 | 0.00 | 84 | 1020.8 |
| 20260504230513 | 10 | 256 | 6.4 | 14.5 | 0.00 | 0.08 | 0.00 | 86 | 1020.6 |
| 20260504230022 | 10 | 247 | 1.6 | 11.3 | 0.00 | 0.08 | 0.00 | 86 | 1020.7 |
| 20260504225508 | 10 | 280 | 4.8 | 11.3 | 0.00 | 0.08 | 0.00 | 86 | 1020.6 |
| 20260504225011 | 10 | 305 | 4.8 | 9.7 | 0.00 | 0.08 | 0.00 | 86 | 1020.4 |
| 20260504224518 | 10 | 299 | 0.0 | 4.8 | 0.00 | 0.08 | 0.00 | 86 | 1020.5 |
| 20260504224007 | 10 | 310 | 0.0 | 4.8 | 0.00 | 0.08 | 0.00 | 86 | 1020.4 |
| 20260504222510 | 10 | 287 | 1.6 | 9.7 | 0.00 | 0.08 | 0.00 | 86 | 1020.2 |
| 20260504222010 | 10 | 285 | 4.8 | 11.3 | 0.00 | 0.08 | 0.00 | 86 | 1020.1 |
| 20260504221536 | 10 | 297 | 4.8 | 11.3 | 0.00 | 0.08 | 0.00 | 85 | 1020.0 |
| 20260504221011 | 10 | 320 | 1.6 | 9.7 | 0.00 | 0.08 | 0.00 | 85 | 1020.0 |
| 20260504220508 | 10 | 322 | 4.8 | 9.7 | 0.00 | 0.08 | 0.00 | 85 | 1020.0 |
| 20260504220029 | 10 | 314 | 1.6 | 8.0 | 0.00 | 0.08 | 0.00 | 85 | 1019.9 |
| 20260504215509 | 10 | 25 | 1.6 | 6.4 | 0.00 | 0.08 | 0.00 | 84 | 1019.8 |
| 20260504215010 | 10 | 341 | 1.6 | 8.0 | 0.00 | 0.08 | 0.00 | 84 | 1019.7 |
| 20260504214006 | 10 | 337 | 4.8 | 8.0 | 0.00 | 0.08 | 0.00 | 84 | 1019.4 |
| 20260504213509 | 10 | 15 | 4.8 | 8.0 | 0.00 | 0.08 | 0.00 | 84 | 1019.2 |
| 20260504213019 | 10 | 8 | 0.0 | 4.8 | 0.00 | 0.08 | 0.00 | 84 | 1019.1 |
| 20260504212510 | 10 | 8 | 0.0 | 8.0 | 0.00 | 0.08 | 0.00 | 84 | 1019.2 |
| 20260504212005 | 10 | 352 | 4.8 | 8.0 | 0.00 | 0.08 | 0.00 | 84 | 1019.2 |
| 20260504211507 | 10 | 324 | 4.8 | 6.4 | 0.00 | 0.08 | 0.00 | 84 | 1019.2 |
| 20260504211004 | 10 | 311 | 3.2 | 8.0 | 0.00 | 0.08 | 0.00 | 84 | 1019.1 |
| 20260504210505 | 10 | 304 | 1.6 | 8.0 | 0.00 | 0.08 | 0.00 | 84 | 1019.1 |
| 20260504210008 | 10 | 240 | 0.0 | 6.4 | 0.00 | 0.08 | 0.00 | 84 | 1019.1 |
| 20260504205504 | 10 | 240 | 0.0 | 9.7 | 0.00 | 0.08 | 0.00 | 84 | 1018.9 |
| 20260504204514 | 10 | 359 | 4.8 | 8.0 | 0.00 | 0.08 | 0.00 | 84 | 1018.6 |
| 20260504204008 | 10 | 4 | 3.2 | 9.7 | 0.00 | 0.08 | 0.00 | 84 | 1018.5 |
| 20260504203505 | 10 | 5 | 3.2 | 9.7 | 0.00 | 0.08 | 0.00 | 84 | 1018.4 |
| 20260504203020 | 10 | 13 | 4.8 | 8.0 | 0.00 | 0.08 | 0.00 | 84 | 1018.3 |
| 20260504202505 | 10 | 342 | 4.8 | 9.7 | 0.00 | 0.08 | 0.00 | 84 | 1018.2 |
| 20260504202010 | 10 | 348 | 4.8 | 11.3 | 0.00 | 0.08 | 0.00 | 84 | 1018.1 |
| 20260504201519 | 10 | 324 | 3.2 | 11.3 | 0.00 | 0.08 | 0.00 | 84 | 1018.1 |
| 20260504201003 | 10 | 338 | 3.2 | 9.7 | 0.00 | 0.08 | 0.00 | 83 | 1017.9 |
| 20260504200510 | 10 | 345 | 3.2 | 16.1 | 0.00 | 0.08 | 0.00 | 83 | 1017.9 |
| 20260504200010 | 10 | 14 | 6.4 | 16.1 | 0.00 | 0.08 | 0.00 | 83 | 1017.9 |
| 20260504195506 | 10 | 355 | 6.4 | 9.7 | 0.00 | 0.08 | 0.00 | 83 | 1017.8 |
| 20260504195004 | 10 | 2 | 4.8 | 11.3 | 0.00 | 0.08 | 0.00 | 83 | 1017.7 |
| 20260504194520 | 10 | 5 | 4.8 | 11.3 | 0.00 | 0.08 | 0.00 | 83 | 1017.7 |
| 20260504194009 | 10 | 344 | 4.8 | 11.3 | 0.00 | 0.08 | 0.00 | 83 | 1017.6 |
| 20260504193505 | 10 | 343 | 4.8 | 9.7 | 0.00 | 0.08 | 0.00 | 83 | 1017.7 |
| 20260504193017 | 10 | 341 | 3.2 | 9.7 | 0.00 | 0.08 | 0.00 | 82 | 1017.7 |
| 20260504192508 | 10 | 17 | 3.2 | 9.7 | 0.00 | 0.08 | 0.00 | 82 | 1017.5 |
| 20260504192009 | 10 | 343 | 6.4 | 11.3 | 0.00 | 0.08 | 0.00 | 82 | 1017.6 |
| 20260504191527 | 10 | 348 | 8.0 | 12.9 | 0.00 | 0.08 | 0.00 | 82 | 1017.4 |
| 20260504191009 | 10 | 20 | 6.4 | 12.9 | 0.00 | 0.08 | 0.00 | 81 | 1017.4 |
| 20260504190508 | 10 | 333 | 6.4 | 11.3 | 0.00 | 0.08 | 0.00 | 81 | 1017.3 |
| 20260504190024 | 10 | 8 | 6.4 | 11.3 | 0.00 | 0.08 | 0.00 | 81 | 1017.3 |
| 20260504185007 | 10 | 16 | 4.8 | 11.3 | 0.00 | 0.08 | 0.00 | 81 | 1017.2 |
| 20260504184010 | 10 | 351 | 4.8 | 11.3 | 0.00 | 0.08 | 0.00 | 81 | 1017.0 |
| 20260504183504 | 10 | 13 | 6.4 | 11.3 | 0.00 | 0.08 | 0.00 | 81 | 1016.9 |
| 20260504183014 | 10 | 1 | 6.4 | 12.9 | 0.00 | 0.08 | 0.00 | 81 | 1016.9 |
| 20260504182507 | 10 | 6 | 6.4 | 12.9 | 0.00 | 0.08 | 0.00 | 81 | 1016.8 |
| 20260504182010 | 10 | 6 | 4.8 | 11.3 | 0.00 | 0.08 | 0.00 | 82 | 1016.7 |
| 20260504181519 | 10 | 343 | 4.8 | 11.3 | 0.00 | 0.08 | 0.00 | 82 | 1016.7 |
| 20260504181004 | 10 | 349 | 4.8 | 11.3 | 0.00 | 0.08 | 0.00 | 82 | 1016.7 |
| 20260504180509 | 10 | 3 | 6.4 | 11.3 | 0.00 | 0.08 | 0.00 | 82 | 1016.7 |
| 20260504180019 | 10 | 349 | 3.2 | 11.3 | 0.00 | 0.08 | 0.00 | 82 | 1016.6 |
| 20260504175510 | 10 | 360 | 4.8 | 11.3 | 0.00 | 0.08 | 0.00 | 82 | 1016.6 |
| 20260504174513 | 10 | 346 | 6.4 | 11.3 | 0.00 | 0.08 | 0.00 | 83 | 1016.6 |
| 20260504173506 | 10 | 7 | 6.4 | 11.3 | 0.00 | 0.08 | 0.00 | 83 | 1016.6 |
| 20260504172507 | 10 | 333 | 6.4 | 12.9 | 0.00 | 0.08 | 0.00 | 83 | 1016.5 |
| 20260504172008 | 10 | 334 | 8.0 | 12.9 | 0.00 | 0.08 | 0.00 | 84 | 1016.5 |
| 20260504171011 | 10 | 328 | 6.4 | 14.5 | 0.00 | 0.08 | 0.00 | 84 | 1016.5 |
| 20260504151002 | 10 | 2 | 9.7 | 17.7 | 0.00 | 0.08 | 0.00 | 86 | 1015.8 |
| 20260504150511 | 10 | 349 | 9.7 | 16.1 | 0.00 | 0.08 | 0.00 | 86 | 1015.9 |
| 20260504141010 | 10 | 350 | 11.3 | 19.3 | 0.00 | 0.08 | 0.00 | 85 | 1015.6 |
| 20260504140503 | 10 | 337 | 9.7 | 22.5 | 0.00 | 0.08 | 0.00 | 85 | 1015.6 |
| 20260504110508 | 11 | 337 | 12.9 | 29.0 | 0.00 | 0.08 | 0.08 | 84 | 1014.5 |
| 20260504100503 | 11 | 11 | 14.5 | 33.8 | 0.00 | 0.08 | 0.08 | 84 | 1013.7 |